Temp
11 13 14 13 12 15 15 14 14 14 14 15 14 15 15 16 13 13 14 14 13 13 13 14 15 16 15 15 14 14 14 14 13 12 10 10 11 11 11 12 13 13 13 13
12 13 13 13 13 13 12 13 12 13 13 13 13 14 14 14 16 14 14 14 12 11 12 13 14 14 14 14 14 13 13 12 12 11 10 10 10 11 11 11 10 11 12 13
13 15 13 14 14 13 12 12 13 14 13 12 12 14 14 14 12 13 12 12 12 11 13 13 13 14 13 13 13 12 12 12 12 11 10 10 10 11 11 11 10 10 9 10
11 12 14 14 13 12 13 13 13 14 13 13 13 14 17 14 14 14 14 12 12 11 12 12 12 12 13 13 13 12 12 12 12 11 10 10 10 10 9 10 10 9 10 9
14 14 14 13 14 13 14 14 13 13 12 12 11 12 14 14 15 16 14 12 11 11 11 12 12 13 13 13 13 12 12 12 12 11 10 10 9 9 10 9 9 10 9 10
11 11 13 13 14 12 14 14 11 9 10 11 12 12 13 14 15 14 14 12 11 11 11 10 12 12 12 12 12 12 12 12 11 11 10 10 10 9 9 9 9 9 9 9
11 11 12 13 13 12 13 11 11 11 10 12 10 10 13 14 13 13 13 13 11 11 11 11 11 11 11 11 11 11 11 11 10 10 10 10 10 9 9 10 9 9 9 9
8 10 13 13 14 14 11 11 11 11 11 12 10 11 13 12 12 11 11 11 11 10 10 10 10 10 10 10 10 10 11 11 11 11 11 11 10 10 10 10 9 9 9 9
8 10 12 12 13 14 12 11 12 12 9 9 13 12 12 12 12 10 9 8 8 8 8 8 9 10 10 10 10 11 11 11 12 12 11 11 10 10 9 9 9 9 9 9
6 7 9 11 12 12 12 12 12 10 10 11 10 10 13 11 12 8 7 6 6 6 7 8 9 9 10 10 10 11 12 11 11 11 11 11 11 10 10 9 8 8 8 8
3 5 9 10 11 10 10 10 10 9 9 11 11 13 8 6 6 5 5 5 5 6 6 7 8 9 9 9 10 11 11 10 10 10 11 11 10 10 9 9 8 8 8 7
4 3 5 7 8 8 8 8 8 8 9 8 9 11 6 5 5 4 4 4 5 5 6 7 7 7 7 8 9 9 10 9 9 10 10 10 10 10 9 9 8 8 7 7
4 3 3 6 7 4 4 5 6 5 6 7 9 10 5 5 4 4 4 4 4 4 4 4 6 6 6 7 8 9 9 9 9 10 10 10 10 9 9 8 8 8 7 8
4 1 2 2 3 3 3 4 5 4 3 4 5 6 3 2 3 3 3 4 4 4 4 3 3 3 6 6 7 8 8 9 9 9 9 9 9 9 9 8 8 7 7 7
2 1 1 2 2 3 3 3 3 3 3 3 4 5 2 1 1 1 1 2 3 3 3 3 2 2 2 5 6 7 7 8 8 8 8 8 9 9 9 8 7 7 7 7
1 1 2 1 2 3 3 4 2 3 2 4 6 3 -1 -1 1 1 0 1 0 1 2 2 2 1 1 2 4 5 6 7 7 7 7 7 8 8 8 8 7 7 7 7
-0 0 1 1 2 2 2 1 1 -0 -2 -1 -2 -2 -3 -2 -2 -1 -1 -2 -2 -2 -0 0 -0 0 -1 -0 2 4 5 7 7 7 7 7 6 7 7 7 7 7 7 7
-1 -1 1 1 1 -1 1 1 0 -2 -3 -3 -3 -3 -4 -4 -4 -1 -1 -2 -2 -2 -2 -1 -1 -2 -1 -1 0 3 5 6 6 6 6 6 6 5 6 7 7 7 7 7
-1 -1 0 -0 -0 1 0 -1 -2 -3 -3 -5 -5 -4 -4 -4 -2 -1 -1 -3 -3 -2 -2 -2 -2 -2 -1 -2 -1 2 4 5 5 4 5 4 5 5 5 5 6 7 7 6
-0 -3 -2 -1 -0 -1 -4 -3 -2 -3 -1 -5 -5 -5 -5 -5 -5 -2 -3 -4 -3 -3 -3 -3 -3 -2 -1 -1 -2 1 4 3 3 4 4 5 4 4 4 4 4 4 5 5
-1 -3 -3 -2 -3 -5 -6 -4 -3 -3 -4 -5 -6 -6 -6 -7 -6 -5 -4 -5 -4 -4 -4 -4 -3 -3 -2 -1 -1 -0 2 3 3 4 4 4 4 4 3 3 3 3 3 3
-1 -2 -4 -5 -6 -5 -5 -4 -5 -7 -6 -6 -7 -7 -7 -7 -6 -6 -5 -5 -5 -5 -5 -5 -4 -3 -5 -3 -1 -0 0 1 2 3 4 4 4 3 3 3 3 2 2 2
-1 -5 -3 -3 -3 -6 -5 -6 -6 -7 -7 -7 -7 -7 -7 -8 -7 -7 -6 -6 -6 -6 -6 -5 -5 -4 -5 -4 -4 -1 -0 0 1 2 2 3 3 3 3 3 2 2 2 2
-6 -6 -5 -5 -6 -6 -5 -6 -5 -6 -7 -8 -8 -8 -8 -8 -8 -7 -7 -7 -7 -7 -6 -6 -6 -5 -5 -4 -4 -4 -2 -0 0 1 1 2 2 2 2 2 2 2 1 1
-8 -7 -8 -7 -6 -6 -5 -6 -7 -7 -7 -8 -8 -8 -8 -8 -8 -8 -8 -8 -7 -7 -7 -7 -6 -6 -5 -4 -4 -4 -3 -1 -0 -0 0 0 1 1 1 1 1 1 1 1
-8 -9 -8 -8 -8 -8 -8 -7 -7 -8 -8 -8 -8 -8 -8 -8 -8 -8 -8 -8 -8 -8 -8 -7 -7 -6 -6 -4 -5 -5 -3 -1 -0 -0 -0 -0 -0 -0 -1 -1 -1 -1 -1 -1
Height
805 806 805 802 804 800 801 807 807 800 792 792 789 782 781 772 776 771 766 765 764 761 759 762 761 764 766 767 767 768 767 766 766 766 768 769 769 770 772 773 775 776 777 779
808 806 798 797 801 804 807 807 806 798 792 793 789 774 775 771 762 762 760 758 757 757 756 756 758 761 762 764 764 764 764 763 762 764 765 767 767 767 768 768 769 770 771 773
806 798 798 797 798 803 806 805 801 794 791 793 792 775 766 762 763 756 755 753 752 751 752 753 754 756 759 761 762 760 760 760 760 761 762 764 765 765 765 764 764 764 765 767
808 799 796 796 798 801 801 792 791 792 795 796 791 785 753 758 757 754 745 749 747 749 750 752 752 753 753 756 758 758 757 757 758 758 759 760 761 761 760 760 759 759 759 760
797 793 794 796 791 793 791 788 792 794 798 798 799 797 756 756 751 742 745 745 747 749 752 752 752 751 752 754 753 754 755 755 755 755 755 756 756 756 756 756 754 754 753 754
800 795 790 786 781 786 785 787 800 809 807 803 786 786 762 758 748 744 741 743 746 749 750 751 751 750 751 752 751 750 751 751 751 751 750 750 751 752 752 750 749 747 747 748
801 793 784 782 784 786 786 796 805 803 810 786 792 795 762 749 748 746 745 744 747 749 750 751 751 750 750 750 749 748 747 747 747 747 746 746 746 746 746 744 742 741 741 742
820 801 782 781 779 779 792 792 801 796 796 780 792 777 756 748 750 748 747 747 749 751 750 749 750 750 749 748 748 746 745 744 744 742 740 740 739 739 739 736 735 734 733 734
823 803 785 781 778 778 786 792 783 785 799 803 765 761 752 749 750 755 758 758 758 755 753 751 749 750 748 747 746 744 742 741 739 737 736 734 733 732 732 730 729 729 728 727
837 829 798 789 783 781 782 784 784 794 788 773 772 771 749 754 753 765 766 765 763 760 756 753 750 749 748 746 744 741 739 737 734 731 730 728 726 725 725 724 723 722 721 721
850 843 801 797 791 795 795 793 790 792 789 768 761 748 772 780 781 780 779 775 770 765 761 757 753 749 747 745 742 739 736 733 730 727 724 721 720 719 719 718 718 717 716 717
853 851 833 807 801 802 802 800 801 795 784 780 772 752 784 785 787 785 784 780 776 772 766 761 757 753 745 743 740 737 734 730 726 722 719 716 715 714 713 712 712 713 713 714
850 850 847 812 803 816 826 819 819 825 811 784 772 756 788 789 789 788 787 783 778 774 770 765 759 754 751 742 740 736 732 727 722 717 714 711 710 710 709 707 708 708 709 710
849 860 857 859 849 843 836 827 817 827 832 813 799 786 802 800 793 791 788 785 783 779 775 771 764 759 753 745 742 736 730 725 720 715 711 709 707 706 705 703 704 705 708 708
858 865 858 851 844 836 834 827 823 822 814 813 798 798 814 811 803 800 797 791 786 782 778 775 771 766 760 749 743 736 730 725 720 716 712 708 705 704 703 702 701 704 707 708
860 859 851 852 837 833 825 822 827 814 815 798 783 802 828 822 809 806 802 798 795 791 786 782 776 770 763 756 747 739 731 725 720 717 713 709 706 705 702 701 701 704 707 709
863 860 854 850 838 831 833 837 835 838 842 834 833 841 838 829 820 813 809 809 806 802 794 788 783 776 768 760 751 742 733 726 722 718 715 711 708 705 704 704 703 704 707 709
864 862 850 846 838 857 838 838 838 848 851 850 847 845 846 841 826 810 813 814 808 803 799 792 786 779 770 760 750 743 733 728 724 721 717 713 710 708 707 706 706 706 708 709
858 860 854 855 852 838 840 846 850 852 853 856 852 845 840 830 817 807 811 816 813 806 801 796 788 781 771 762 752 743 736 730 727 724 721 718 714 712 709 710 708 709 710 711
853 863 863 855 850 849 864 853 845 846 837 857 853 849 846 839 829 813 815 814 809 806 802 795 788 780 772 763 754 745 739 733 730 728 725 721 718 717 715 714 714 712 713 714
858 867 870 860 865 867 871 857 844 850 858 859 859 854 850 848 844 828 821 814 810 805 799 793 788 779 774 763 756 745 740 737 734 732 728 725 723 722 720 719 719 719 719 721
859 864 872 874 887 874 868 857 864 876 867 864 860 856 850 845 836 829 820 812 806 800 794 791 786 778 771 764 758 749 742 740 736 734 731 729 727 727 726 725 726 728 727 728
860 878 872 869 863 872 870 872 874 873 870 864 860 854 849 842 833 825 816 810 803 798 793 789 783 776 769 765 761 754 746 741 738 737 735 733 732 732 731 731 733 734 735 736
882 882 876 875 874 874 867 871 869 869 866 862 858 852 845 838 830 821 814 806 799 793 788 785 780 774 767 765 761 755 748 743 738 739 738 737 736 737 737 738 739 741 743 745
891 888 889 882 875 872 865 868 869 865 862 858 854 849 842 834 826 819 809 801 795 789 783 780 776 771 766 763 758 754 750 745 742 741 740 740 740 741 742 744 747 748 750 751
893 894 893 886 882 883 876 871 868 864 859 853 847 839 834 828 821 814 805 795 788 782 776 772 769 767 763 760 757 754 750 746 744 743 743 743 743 745 748 749 754 757 758 759
Wind_Speed
3 3 5 6 6 1 2 2 5 5 5 3 8 12 11 14 5 13 13 13 12 13 8 14 12 11 11 12 12 13 15 14 14 12 10 14 18 18 17 18 18 20 22 23
4 4 4 2 3 3 3 3 6 6 3 5 7 17 10 10 13 8 12 13 12 5 7 9 12 9 10 12 12 14 15 14 13 12 12 11 9 13 18 18 18 20 21 24
3 1 1 1 2 3 4 5 5 8 3 3 3 10 4 4 5 6 9 7 5 10 10 7 8 9 6 6 10 13 13 12 11 11 13 12 12 13 19 22 23 24 22 23
5 3 2 2 4 6 3 8 3 2 2 4 0 8 16 4 6 6 9 7 7 8 5 4 5 6 2 5 8 9 10 11 13 11 14 16 14 13 18 21 23 26 24 24
7 3 4 4 6 6 7 2 4 2 3 3 3 2 9 1 8 11 6 7 6 5 5 5 6 4 4 7 7 6 8 11 13 14 17 19 19 19 21 21 23 25 26 26
7 3 4 7 3 6 3 2 4 3 2 4 7 7 7 4 5 5 3 1 6 6 6 5 8 5 5 7 7 7 9 12 13 15 19 22 23 19 19 21 23 24 24 26
4 5 3 2 2 1 3 4 3 3 1 6 3 3 8 8 6 5 5 5 4 4 4 5 5 6 7 8 7 7 8 14 14 15 18 23 27 26 26 26 22 22 21 21
2 7 2 3 3 2 5 7 4 6 5 5 4 6 6 5 5 4 4 4 5 5 4 5 6 7 8 7 7 7 10 13 14 16 17 20 23 24 24 25 23 23 21 23
5 6 4 2 2 3 2 4 3 4 1 1 7 7 8 2 4 7 8 8 9 10 9 8 6 5 8 9 9 8 11 14 15 18 19 18 18 20 21 22 20 21 24 26
5 8 3 4 4 1 3 2 4 1 5 15 5 4 5 2 2 8 12 13 13 12 12 9 6 9 11 11 12 10 11 15 18 18 17 18 17 18 17 17 19 15 17 24
5 1 8 5 2 5 5 6 3 2 4 12 16 8 5 4 6 8 9 11 12 13 12 10 9 11 12 14 14 12 15 16 17 18 15 17 17 16 18 16 15 8 11 16
3 4 8 13 14 11 5 7 4 4 9 4 4 9 4 6 7 9 10 11 12 13 13 12 13 16 15 16 18 16 17 15 17 19 16 12 15 16 15 18 17 13 10 4
3 2 6 14 5 6 5 12 11 15 10 6 11 8 5 7 10 11 12 12 12 14 15 14 15 16 19 19 20 18 14 17 17 16 12 12 13 12 16 18 17 16 13 9
5 2 3 8 14 15 17 21 27 11 10 12 14 15 11 10 10 13 14 12 13 14 16 16 16 18 24 22 22 20 16 16 15 13 11 11 12 12 13 17 18 17 12 10
3 4 7 12 17 20 19 22 20 21 18 16 22 21 4 6 8 9 12 15 15 17 18 18 17 15 26 26 26 23 21 14 11 11 12 10 8 6 5 8 18 17 14 12
1 4 5 10 16 14 17 13 16 17 17 13 12 1 15 14 12 12 14 15 17 19 19 19 19 23 26 29 28 25 23 16 13 15 15 13 12 8 6 2 17 17 15 13
2 2 5 4 7 12 2 9 8 6 15 13 10 8 15 18 18 12 14 17 17 19 19 19 19 23 28 31 29 26 24 14 16 16 17 16 14 12 8 4 11 17 13 13
3 2 3 4 6 3 2 8 7 8 11 13 12 13 14 16 20 3 11 17 18 19 20 18 23 29 31 33 31 28 19 14 15 16 15 15 15 14 11 7 10 13 10 8
5 1 3 2 4 4 2 8 8 6 4 14 15 16 17 20 16 3 15 20 19 18 22 23 27 28 31 32 34 29 15 13 14 14 14 14 15 14 15 13 12 14 14 12
5 3 2 2 4 4 2 13 16 7 5 16 15 16 17 17 11 8 20 22 22 26 25 26 30 28 28 30 32 24 13 12 13 14 13 13 14 15 18 17 17 19 20 19
3 2 3 4 3 4 8 15 14 3 6 17 17 16 16 11 9 21 21 22 27 26 28 28 26 25 25 29 28 23 17 15 12 9 10 13 13 15 17 21 21 23 26 28
1 2 2 1 2 5 12 4 5 5 11 13 13 15 18 17 18 19 20 20 26 27 28 26 25 25 27 26 26 25 19 21 14 8 10 13 14 15 18 23 24 22 24 26
1 2 2 2 3 1 6 5 4 7 10 12 14 16 16 18 20 20 20 19 24 27 26 24 23 26 23 22 24 22 24 19 15 8 9 13 15 16 19 22 22 22 21 21
2 4 2 5 2 10 13 2 12 13 12 13 14 16 18 19 19 21 19 18 24 26 25 24 23 21 22 20 22 22 25 20 11 6 9 13 16 17 20 22 21 20 18 18
2 4 4 4 3 12 5 13 13 15 14 15 18 16 17 17 18 19 19 22 26 28 26 23 22 21 21 21 19 21 23 19 8 6 8 14 20 22 25 25 21 23 19 21
3 2 2 3 7 5 13 14 18 14 17 17 17 17 23 22 18 24 20 29 29 27 28 25 23 21 20 18 17 18 19 17 6 3 8 14 19 20 23 28 32 28 27 27
Wind_Direction
15 60 222 218 206 124 116 198 252 262 249 238 242 262 250 272 241 256 253 255 248 252 250 227 213 224 254 268 278 292 292 280 269 256 237 237 240 243 251 253 252 250 251 248
9 245 241 213 141 178 174 229 253 272 256 192 276 274 250 241 259 249 257 254 252 231 206 200 207 223 246 270 281 295 290 275 260 242 231 230 239 253 261 272 270 261 256 250
212 252 63 294 226 181 209 204 224 233 321 247 337 282 248 248 231 249 240 246 246 208 194 196 201 216 240 267 297 298 288 268 251 243 235 230 237 252 262 265 270 262 259 259
232 271 234 210 252 165 259 226 241 271 14 261 299 288 294 278 279 261 267 233 225 202 203 206 204 230 224 290 303 300 288 256 254 256 238 235 238 244 251 269 271 273 268 256
256 229 216 215 221 165 234 141 181 188 206 323 192 185 277 278 285 290 289 260 209 190 210 224 246 269 309 305 303 300 289 257 254 256 247 241 243 248 269 265 261 269 263 260
248 309 230 213 220 190 131 114 53 57 103 248 193 180 278 269 232 301 312 319 185 202 231 258 278 304 315 323 310 305 297 282 268 263 254 243 244 252 260 260 256 251 251 257
310 234 276 170 204 95 117 75 313 304 216 238 150 169 248 271 252 257 298 294 202 226 265 288 304 313 324 337 330 321 311 300 290 276 262 254 251 256 262 268 251 242 244 243
329 320 206 173 218 219 184 167 177 252 232 248 162 235 248 227 330 353 33 98 65 21 342 326 301 297 318 327 336 342 322 308 292 281 269 268 264 261 267 268 255 245 242 244
337 271 311 229 282 150 188 192 203 242 103 280 256 277 295 45 69 46 29 22 8 1 345 324 318 318 324 334 331 340 327 311 299 284 278 276 276 268 275 271 266 267 266 255
348 296 273 324 351 356 208 290 278 290 254 258 250 241 236 348 6 14 9 6 354 350 347 339 347 346 347 339 325 323 320 312 302 304 284 281 279 270 280 263 263 269 278 265
8 298 281 342 210 328 350 314 292 251 227 262 265 259 15 55 8 351 356 353 348 347 343 338 335 347 345 345 333 331 325 318 310 302 286 286 280 273 277 255 256 262 278 262
335 288 280 283 288 283 257 305 317 268 282 251 260 255 21 52 32 16 4 3 360 2 0 4 358 351 4 351 342 329 326 317 314 303 295 286 277 277 269 252 242 231 227 261
336 317 314 303 308 43 7 327 321 328 276 250 255 252 51 41 37 24 16 5 5 9 6 2 2 360 348 353 340 324 324 327 323 317 303 293 286 285 275 254 234 217 213 235
25 355 265 283 300 305 293 292 300 284 283 295 286 312 12 7 30 19 15 14 11 13 11 6 2 354 346 348 337 332 335 346 343 342 339 313 304 296 289 254 224 205 199 187
65 268 264 279 274 275 281 282 290 288 280 255 277 282 3 352 10 19 16 8 12 12 7 5 359 350 341 347 340 336 340 353 10 13 18 9 1 337 327 260 196 181 171 150
263 266 316 286 285 292 296 317 328 308 312 288 248 90 355 349 351 21 19 13 8 0 359 354 353 350 342 338 336 334 324 12 29 26 20 23 20 14 21 245 176 168 164 161
229 264 298 261 322 313 65 338 27 51 28 13 37 360 340 340 346 357 14 9 360 348 344 346 344 340 334 331 330 329 322 21 34 35 36 27 24 31 41 113 170 162 160 160
202 216 264 280 313 4 70 26 1 70 41 23 9 356 345 331 317 305 30 4 349 342 339 336 336 332 332 329 330 330 341 32 30 28 27 32 38 39 51 86 137 144 149 179
195 175 276 281 295 237 324 3 347 353 35 15 357 344 344 340 328 297 5 350 336 330 328 327 326 326 328 331 332 332 340 42 35 28 28 30 49 52 55 62 86 123 114 103
198 183 172 312 293 287 30 320 320 305 209 6 353 340 339 343 343 307 334 330 324 324 325 326 323 325 326 332 335 337 345 27 34 29 34 44 57 64 69 70 78 101 106 94
305 352 187 272 248 279 338 321 310 58 317 336 334 329 326 322 296 302 311 311 315 316 319 323 322 319 319 328 338 339 353 13 21 37 48 59 68 75 80 84 80 86 90 90
270 318 305 306 340 294 358 354 61 279 306 315 319 316 313 307 304 303 306 309 312 314 319 321 317 315 321 331 339 338 353 354 5 31 65 68 78 83 92 93 89 79 83 83
174 357 299 284 315 61 358 116 36 328 305 312 315 313 308 305 304 306 307 306 306 307 309 311 312 313 319 326 332 336 342 350 2 33 67 85 90 93 93 92 88 83 78 81
38 7 271 328 57 334 317 163 332 338 316 310 309 307 306 302 303 303 304 305 305 305 304 307 307 307 309 318 323 329 338 344 360 40 70 94 97 98 97 98 92 86 81 83
317 340 328 273 355 334 146 342 330 318 315 314 309 303 298 299 302 300 300 300 299 298 299 298 295 295 298 308 316 319 333 341 347 46 82 99 102 95 88 84 85 94 94 101
350 336 336 282 332 291 291 313 316 318 319 314 314 311 312 304 300 301 295 296 296 295 293 289 283 281 287 296 306 310 325 335 328 64 112 118 106 103 101 96 83 77 87 90